Location: Bun Machan
(52.1403°N, 7.3744°W)
Time: 19:18:35
(UTC+00:00)

Cosmos 44 Rocket - Pass Details

Date: 14 July 2020
Orbit: 650 x 740 km, 65.1° (Epoch: 11 August)

Event Time Altitude Azimuth Distance (km) Brightness Sun altitude
Exits shadow 00:55:43 - 246° (WSW) 2,351 5.7 -16.1°
Reaches altitude 10° 00:56:27 10° 248° (WSW) 2,073 5.5 -16.1°
Maximum altitude 01:00:58 46° 322° (NW) 903 4.2 -16.0°
Drops below altitude 10° 01:05:37 10° 36° (NE) 2,127 6.8 -15.9°
Sets 01:08:05 0° 43° (NE) 3,061 7.6 -15.9°
